GFSCGP_con_3kmhel_000.txt.gz
Helicity
93 111 90 56 11 15 18 18 28 46 44 112 68 90 122 165 183 152 181 227 245 252 215 195 198 182 251 299 311 234 229 130 58 62 87 119 110 96 90 94 115 141 138 165
102 104 57 55 61 54 47 55 67 99 173 124 122 155 168 189 143 133 158 200 231 217 222 216 182 161 139 63 39 16 14 -43 -2 44 55 59 73 69 115 120 156 183 157 156
36 57 73 66 74 46 61 52 30 100 183 139 150 150 178 191 167 164 150 99 91 76 87 71 76 23 -9 -11 -12 25 31 35 62 84 91 92 82 88 102 122 142 171 197 198
34 62 25 62 43 34 65 64 83 106 160 118 106 117 148 146 161 143 102 102 88 92 65 78 45 45 59 77 66 61 78 81 68 58 92 89 85 94 89 95 143 183 201 195
77 66 66 39 39 34 64 93 92 122 159 160 178 158 186 187 158 152 91 81 65 25 -49 23 36 38 127 94 58 52 66 79 84 104 128 132 145 147 156 181 177 160 157 176
102 87 73 58 63 71 63 115 150 137 133 134 144 187 151 193 170 199 145 57 20 22 45 127 53 53 73 99 104 103 131 133 126 159 185 199 212 197 214 198 194 242 226 194
107 88 85 83 80 78 88 109 107 110 130 113 164 188 126 70 133 123 46 -7 32 70 87 72 94 160 120 158 156 164 181 223 243 269 264 250 217 210 221 227 234 226 204 195
51 70 80 102 79 63 93 84 89 -6 8 31 160 56 117 51 74 61 -5 19 78 60 92 149 165 226 240 280 238 222 212 211 214 246 256 210 189 179 186 196 190 178 174 160
52 54 83 81 67 58 58 76 58 57 -2 33 59 91 85 85 71 115 110 125 147 147 217 255 270 314 336 326 276 215 183 183 184 181 180 181 168 160 138 143 137 144 153 196
26 47 65 70 52 78 40 38 41 75 46 44 47 65 88 101 83 100 155 149 175 218 291 323 379 385 379 318 217 214 136 171 139 186 155 127 125 119 104 78 84 105 134 189
54 55 59 64 72 63 62 41 53 39 39 20 10 17 46 84 122 207 187 192 266 320 363 467 488 438 361 288 229 123 227 156 187 138 104 115 94 71 68 68 70 75 102 177
76 40 82 54 61 45 40 23 37 35 18 54 56 46 38 26 124 278 236 275 325 352 461 499 409 341 267 160 150 196 107 128 135 99 82 75 65 57 51 52 50 59 135 188
47 63 97 91 68 63 31 51 70 71 66 50 85 35 61 122 236 249 334 388 394 436 435 392 304 240 153 197 173 61 104 109 107 94 57 39 48 50 42 46 60 95 137 174
89 70 47 3 20 59 49 71 92 93 75 67 92 81 74 117 204 287 366 403 402 356 319 279 247 187 192 135 37 101 108 101 83 66 50 63 59 37 45 72 89 114 134 133
94 54 77 78 84 67 51 61 90 101 108 104 73 112 87 140 205 296 354 378 360 301 269 244 230 180 103 59 99 94 88 81 85 77 84 78 60 65 82 99 115 128 126 121
109 55 84 72 99 104 64 55 83 117 131 105 122 103 111 155 287 306 319 305 269 240 217 207 185 92 92 83 104 86 76 81 106 98 91 105 109 106 117 128 127 118 117 128
105 79 90 54 102 103 51 77 147 157 159 175 173 128 177 162 191 238 246 234 190 187 178 179 121 91 107 98 103 87 93 108 126 137 142 145 139 133 139 131 125 124 124 129
95 138 141 90 131 113 91 112 97 119 110 174 166 129 140 152 204 176 170 188 170 162 167 150 130 126 112 131 128 118 118 133 165 155 160 167 164 155 148 134 122 123 127 105
124 134 166 155 139 148 146 120 131 166 107 203 174 167 185 195 235 113 136 178 177 155 140 151 131 165 154 137 138 139 140 170 177 164 185 173 166 162 149 136 115 111 116 139
142 161 170 197 195 153 95 107 127 176 188 156 213 177 179 228 255 120 181 223 184 176 229 185 191 205 176 168 165 180 181 180 176 182 179 171 167 163 151 133 108 117 126 138
124 151 157 205 201 185 88 147 191 229 89 92 105 125 222 214 178 161 174 233 232 266 289 270 256 224 186 194 211 175 174 170 182 183 175 169 166 173 160 137 130 124 149 186
101 115 120 184 220 165 141 241 180 97 108 66 69 158 189 225 267 256 252 288 313 321 311 276 261 206 175 167 182 178 168 176 189 177 164 159 171 190 179 140 120 140 169 175
144 128 132 135 137 112 15 61 71 134 128 131 169 191 209 325 307 279 293 321 276 302 313 234 192 161 153 160 177 175 171 188 173 166 158 147 153 172 169 130 124 160 167 155
124 145 190 182 111 89 88 82 96 133 148 166 160 218 308 317 321 360 419 424 430 266 193 133 150 151 151 153 146 170 178 181 170 169 156 135 156 161 178 148 137 141 133 132
119 134 134 130 83 103 96 125 112 128 148 162 181 222 288 352 371 384 377 408 312 171 107 124 149 154 135 129 144 171 178 181 168 160 145 138 152 164 177 147 133 118 114 124
159 176 178 142 120 154 100 84 90 115 133 179 250 313 338 363 383 401 423 371 158 75 101 137 148 145 122 140 147 148 161 170 149 136 124 133 127 134 173 153 128 96 82 61

GFSCGP_con_3kmhel_006.txt.gz
Helicity
34 52 12 2 23 57 43 41 48 30 25 26 31 46 56 46 20 22 47 55 68 78 74 79 106 113 116 105 101 81 75 66 28 36 47 27 25 49 62 98 106 100 111 121
17 44 36 43 48 34 42 34 32 42 18 34 11 36 51 57 64 42 34 36 68 98 109 106 101 109 100 68 50 42 55 41 38 41 40 15 27 70 113 119 122 131 140 162
14 58 60 30 26 17 41 24 17 10 73 53 24 37 52 69 79 86 81 65 74 92 110 102 68 68 55 41 37 54 78 64 60 36 26 40 85 103 118 143 164 186 174 171
69 63 51 54 56 54 14 30 -6 1 18 1 20 28 58 75 91 102 103 101 113 136 143 122 72 82 65 60 79 122 125 105 73 68 115 136 119 144 138 150 167 151 144 131
82 39 44 56 54 44 45 15 14 1 9 27 38 22 112 95 103 148 163 161 169 169 129 76 106 58 61 101 133 132 156 155 153 157 138 148 137 129 135 153 141 118 111 105
86 88 73 57 62 25 40 44 55 49 41 0 76 38 57 66 85 168 170 163 181 177 149 139 100 81 92 130 136 137 178 195 186 172 179 162 143 140 172 174 135 125 110 97
68 75 64 50 37 40 8 9 -18 -12 24 3 79 45 9 65 76 147 174 173 181 175 153 117 94 79 125 136 173 185 200 224 208 187 163 138 151 138 149 131 109 94 97 97
-13 -15 10 64 42 -19 -61 -28 12 24 34 31 67 30 55 80 111 116 104 144 157 153 117 94 87 97 151 193 223 206 198 215 239 215 176 109 122 143 121 87 84 82 92 90
14 42 78 95 91 75 59 22 110 82 68 8 25 29 2 86 88 125 180 230 194 140 119 117 131 132 191 257 264 232 245 272 289 254 138 182 151 108 60 52 77 95 87 84
42 18 68 68 78 115 84 93 16 12 -12 -8 14 46 11 37 103 130 210 217 179 157 155 164 177 202 234 302 305 268 266 223 226 143 103 133 117 76 74 91 88 77 80 82
58 57 52 57 38 42 65 21 51 41 37 5 -11 10 32 19 52 92 138 163 166 170 165 185 220 255 298 340 319 297 220 191 74 102 89 138 110 105 103 84 77 74 67 74
78 73 52 38 49 69 60 36 35 -11 -23 34 23 -11 37 17 19 44 67 116 140 155 180 226 276 324 370 357 324 273 169 109 128 124 156 131 132 115 95 80 67 71 64 73
65 66 58 32 27 38 28 39 51 58 47 17 14 21 58 24 14 51 66 140 159 187 236 256 300 385 379 340 281 203 100 131 134 171 144 137 106 93 90 78 78 76 75 74
61 62 43 16 38 47 43 38 47 31 41 43 51 17 63 54 54 68 101 164 159 221 260 268 300 364 350 268 218 150 144 153 184 144 118 102 87 94 90 90 84 88 88 94
68 35 33 40 56 53 54 19 41 50 31 55 30 36 47 73 76 82 116 139 176 231 260 268 299 305 245 217 231 176 162 192 149 120 95 88 87 90 103 103 105 105 94 96
81 37 49 27 61 73 58 5 23 32 31 35 24 29 28 75 96 118 124 165 162 192 220 239 204 195 209 222 206 187 196 163 138 105 79 85 97 106 113 120 122 99 94 107
77 66 65 50 90 91 75 16 64 80 91 77 69 57 120 90 80 82 106 136 124 156 170 168 183 179 195 210 198 190 201 170 123 91 87 95 109 111 119 132 118 120 109 109
66 103 108 74 86 105 117 104 124 70 42 69 52 92 103 115 128 121 92 93 85 86 119 162 182 180 176 193 210 203 179 139 110 101 101 112 108 116 120 128 123 128 115 108
90 90 96 100 91 98 80 88 81 80 94 107 60 78 124 125 120 85 60 47 39 72 117 166 183 193 212 243 225 207 137 119 109 118 118 99 115 116 124 130 128 119 128 109
119 117 114 115 84 56 125 132 119 101 86 157 108 107 86 94 105 88 129 62 65 98 141 199 235 276 301 288 352 169 160 144 131 131 117 117 115 127 130 129 125 125 138 132
81 105 92 118 100 96 106 129 99 126 181 157 88 79 82 95 78 159 146 117 97 127 165 262 313 333 310 338 218 232 228 149 129 120 106 102 113 131 131 130 129 132 140 164
63 82 94 126 135 111 112 102 111 144 105 93 101 110 100 81 147 144 151 170 165 200 255 328 409 480 411 300 170 248 173 123 108 102 103 98 124 145 142 125 120 151 145 166
84 96 111 85 127 114 36 55 106 114 103 96 106 114 114 101 103 131 155 217 252 276 368 492 509 464 332 359 184 153 101 105 101 97 89 103 113 118 126 124 125 151 149 139
69 77 106 98 75 34 35 54 59 65 61 66 69 72 82 81 93 125 179 256 307 363 423 512 610 563 575 358 63 62 79 84 81 76 84 103 115 140 112 117 124 129 143 118
115 79 88 84 47 69 65 60 61 68 62 56 75 83 95 114 123 164 218 288 407 507 615 692 643 443 344 120 76 62 58 67 64 80 87 85 103 100 93 82 96 127 94 105
110 95 115 109 103 104 77 96 72 67 82 103 102 108 143 145 202 239 313 380 484 629 706 554 326 214 72 47 36 41 61 64 75 78 76 88 91 95 85 87 87 110 83 125

GFSCGP_con_3kmhel_009.txt.gz
Helicity
49 37 28 10 29 26 45 -21 -3 58 24 -29 15 41 52 22 8 21 13 50 61 53 72 55 36 72 94 115 91 64 72 55 47 68 72 62 56 56 51 71 77 80 99 94
-1 10 62 21 13 34 4 -4 55 34 16 15 5 47 53 47 25 30 41 47 58 91 84 97 108 95 110 108 94 63 82 68 77 67 85 70 64 85 96 97 88 122 121 132
29 34 21 8 0 -9 -2 -6 27 26 12 35 13 78 41 41 54 29 30 38 62 104 102 122 117 123 141 124 90 76 82 115 126 95 63 86 97 64 69 107 123 162 119 118
58 14 -1 -36 4 32 6 44 -25 0 35 26 8 4 26 88 76 64 65 77 87 92 117 133 127 109 90 92 60 77 115 135 94 113 156 164 171 191 158 123 164 120 152 126
19 11 3 -11 65 31 70 -32 32 -1 15 -9 9 -6 151 -9 84 96 114 115 117 129 133 143 137 112 87 84 76 141 131 130 152 201 170 194 194 149 126 148 132 159 169 128
14 61 56 61 36 50 28 34 16 15 10 -5 14 -5 112 71 59 95 118 154 161 159 166 196 187 158 153 120 142 150 141 165 196 232 260 257 221 164 146 186 169 167 107 100
15 33 64 33 44 37 -13 -2 0 -5 -7 -22 38 42 10 25 69 95 134 126 147 169 187 235 263 163 132 143 149 169 217 207 224 267 298 291 217 173 159 153 167 115 100 110
39 41 67 54 2 -15 -16 16 7 0 27 22 82 52 40 127 105 47 155 107 114 130 170 195 173 139 145 153 173 203 219 249 285 316 348 314 174 227 165 177 124 98 111 125
2 64 95 63 40 30 12 13 53 45 56 35 17 14 85 89 83 55 129 129 147 146 172 159 151 159 153 156 195 228 244 302 331 321 250 200 142 108 175 120 94 119 116 101
40 31 18 68 41 36 61 76 39 53 9 -2 26 5 19 58 36 39 127 152 148 138 152 145 153 188 186 152 213 256 305 338 321 263 221 106 102 135 130 118 126 111 92 80
40 35 1 44 8 2 48 21 45 67 46 -20 -17 15 100 46 24 51 72 132 134 118 137 145 207 206 207 215 254 297 348 396 280 215 183 118 108 147 111 124 113 101 79 74
45 37 48 -31 96 70 103 28 34 -6 -35 41 45 -4 45 54 15 28 42 97 111 101 119 143 206 220 232 263 306 332 429 368 239 219 145 91 161 126 128 122 107 95 66 80
63 45 40 33 40 33 13 2 15 44 68 6 15 22 48 79 36 34 47 85 121 130 149 187 241 240 253 296 328 426 411 326 233 160 77 149 160 129 117 106 102 82 87 84
99 35 48 -1 26 50 10 -10 13 10 25 -2 14 -5 52 63 49 68 59 45 132 137 175 205 268 263 270 306 357 411 400 322 184 101 133 210 165 120 114 102 98 102 90 86
76 46 11 35 54 60 44 23 -1 -10 13 -25 2 21 27 53 85 88 113 69 68 156 200 235 279 263 284 311 339 369 376 291 161 131 175 188 147 100 81 107 97 111 104 93
51 45 70 45 21 22 19 -18 -31 -9 -4 0 7 11 36 106 118 78 115 96 96 135 160 184 188 213 246 272 268 310 342 241 173 174 175 158 118 82 98 104 98 92 93 118
58 75 56 37 67 56 17 -3 -13 10 14 40 32 33 132 145 89 98 99 113 89 117 142 151 159 157 177 213 249 305 283 252 228 174 154 108 82 83 93 77 81 93 131 131
59 66 65 48 37 39 54 83 82 64 31 37 53 51 85 134 140 103 96 83 92 92 101 99 122 176 206 215 301 276 279 289 220 288 203 97 92 75 71 81 81 111 125 128
63 66 64 66 39 58 40 78 77 75 71 175 156 132 156 155 86 28 74 71 94 94 72 107 151 173 197 266 276 277 267 324 353 250 94 86 76 82 76 82 95 113 125 119
81 96 79 86 64 31 129 115 88 91 78 201 169 148 135 85 97 89 162 122 96 81 88 104 127 170 216 270 297 305 475 416 313 168 87 78 73 76 69 85 98 105 120 114
54 75 60 62 72 70 142 106 87 97 210 150 112 96 103 88 98 182 137 119 109 102 113 148 167 216 240 340 358 439 366 343 202 165 73 64 74 66 74 83 99 101 107 119
31 49 65 99 93 69 113 102 121 164 95 111 101 106 124 103 86 67 83 85 91 87 138 242 267 297 327 501 561 646 678 278 125 69 79 60 71 86 89 86 78 80 95 164
55 72 93 79 103 138 78 97 110 99 100 98 113 86 80 77 62 62 84 122 113 119 257 283 453 638 721 650 695 631 537 227 122 83 51 56 78 90 88 81 72 88 117 180
74 85 105 110 90 71 86 76 92 94 87 76 74 70 72 77 78 83 107 211 177 224 338 410 522 527 697 768 576 281 200 122 60 35 39 67 76 98 72 76 72 98 109 133
130 84 75 78 44 80 88 73 131 100 93 72 97 117 115 115 99 142 224 240 321 512 476 517 538 577 611 536 453 223 84 42 27 34 51 77 89 78 69 85 76 80 99 150
82 99 120 120 162 129 99 193 166 101 173 178 153 161 230 170 208 250 384 412 445 460 439 494 519 537 329 188 119 48 21 20 32 52 74 83 90 86 102 101 91 71 77 87

GFSCGP_con_3kmhel_015.txt.gz
Helicity
44 49 121 174 98 84 93 -10 34 31 32 18 51 146 169 207 197 131 85 50 -15 80 131 125 227 248 204 129 184 212 164 126 172 126 148 112 197 157 142 133 126 118 100 110
21 40 107 34 50 50 54 47 -5 1 -4 -11 51 87 151 194 131 83 201 157 -76 133 196 161 300 334 321 236 197 213 146 93 94 96 97 106 140 127 143 155 117 105 125 132
-5 1 23 11 74 27 -5 42 46 102 13 0 -1 81 153 13 28 62 172 89 -22 292 238 177 245 372 331 324 247 176 97 67 96 252 224 245 264 245 215 223 196 159 178 171
-19 -4 29 9 66 0 38 13 55 43 54 14 18 67 52 80 36 80 201 83 173 184 286 347 251 373 384 302 247 221 122 203 240 295 325 354 324 399 373 356 249 245 223 204
51 13 21 64 69 37 -5 -6 34 51 21 141 -9 47 75 150 28 -39 -6 72 131 238 358 432 329 381 334 316 315 241 344 389 301 302 351 409 512 521 483 416 361 275 246 189
85 2 37 -58 10 20 -5 15 3 11 30 82 48 161 123 237 54 49 39 -33 80 232 356 346 364 368 314 310 360 404 488 475 390 399 396 490 550 523 471 399 338 264 188 223
52 25 5 -32 -29 38 25 29 62 75 93 25 37 54 28 118 133 90 21 81 111 195 299 411 421 360 298 290 416 501 563 451 444 466 491 502 483 459 413 326 281 252 219 240
76 24 40 20 -14 44 32 2 37 49 36 -53 -30 39 -8 128 107 79 28 59 67 159 273 318 295 248 397 465 490 459 449 455 439 426 423 419 433 399 352 308 267 220 199 195
93 32 21 133 141 53 39 47 20 104 39 45 18 9 72 92 34 6 73 116 146 209 282 242 276 370 530 533 505 464 463 423 412 391 401 417 422 401 367 323 295 268 241 157
71 77 93 115 138 50 41 21 85 98 18 1 8 29 42 70 42 52 65 146 213 315 246 243 327 473 548 522 450 410 411 429 401 380 383 384 389 367 334 311 298 257 227 201
126 71 44 121 -66 20 41 57 64 66 75 39 37 60 25 36 54 59 50 181 343 388 357 331 400 451 479 452 382 331 407 457 432 432 402 378 345 311 277 265 212 209 211 186
49 69 59 -4 31 2 43 32 57 102 63 83 57 35 25 46 28 37 51 173 255 337 370 384 446 496 497 511 496 455 471 504 505 500 412 342 306 272 257 266 265 192 155 159
134 155 153 104 93 82 16 54 40 66 130 83 64 27 6 40 89 81 59 84 182 296 333 356 455 537 563 583 620 610 639 623 651 626 520 422 334 287 277 281 237 191 167 164
114 108 97 83 34 28 17 38 28 82 126 64 50 23 53 6 158 69 58 51 100 216 256 280 332 484 626 665 673 635 672 739 688 630 579 490 338 330 295 261 200 181 165 146
113 96 106 56 47 47 40 48 24 23 26 101 29 24 70 71 55 145 75 72 91 164 138 99 273 455 570 623 646 583 589 628 633 600 546 425 304 336 340 304 293 199 166 121
131 130 131 75 71 62 84 80 55 54 41 52 44 70 39 40 98 163 181 196 186 180 111 87 131 327 466 528 569 540 490 568 608 586 515 434 488 561 559 470 404 263 128 79
132 149 149 93 113 92 45 17 28 30 34 36 24 32 85 215 167 183 191 188 190 143 183 133 89 90 228 334 297 335 428 541 590 571 564 649 693 728 755 615 333 105 33 85
159 127 115 89 109 81 11 46 59 45 94 119 164 150 158 184 239 284 265 214 203 186 191 166 125 106 108 149 217 356 482 555 592 635 757 806 819 712 658 580 189 97 79 93
106 130 121 96 85 52 51 86 67 68 120 126 171 215 182 190 168 196 137 149 190 212 219 202 138 112 142 206 271 432 537 633 783 860 816 829 703 724 680 346 164 71 60 82
201 155 129 121 94 46 37 62 95 101 146 153 160 163 142 104 108 45 71 111 140 154 159 175 215 266 200 224 400 563 688 808 805 907 821 781 876 783 353 94 62 53 82 97
127 139 99 109 79 61 54 84 82 121 95 174 152 120 117 81 36 65 110 157 192 222 186 200 277 353 433 533 815 897 946 935 846 825 888 866 609 320 101 83 66 36 40 106
47 67 61 110 83 33 86 126 105 94 178 145 131 119 141 153 183 194 176 188 237 260 282 279 319 392 497 578 701 742 868 839 956 935 816 478 143 138 99 77 24 63 88 113
62 44 41 62 40 31 84 121 96 133 134 125 148 204 174 192 173 195 223 282 273 295 323 310 292 321 349 382 422 521 503 526 532 510 264 128 181 88 57 21 67 93 103 124
109 86 92 96 59 61 72 108 210 263 311 316 271 221 210 222 230 238 257 295 363 370 315 250 230 216 195 152 153 144 181 202 169 151 148 114 66 37 49 78 92 113 130 139
76 121 86 77 76 226 337 373 371 445 443 376 377 362 318 294 287 280 282 276 266 239 201 192 190 182 211 210 196 155 143 140 166 142 121 108 69 60 72 87 103 114 127 155
122 120 140 124 162 266 284 322 328 378 392 367 340 362 373 334 329 291 259 234 227 224 191 195 192 191 161 141 131 139 110 135 154 137 98 88 92 96 103 105 103 87 111 112